Вернуться в каталог

DELTA 1 DEB

АктивенPO
NORAD 12185·DEBRIS·🇺🇸 United States

Запущен Mar 5, 1978 с Vandenberg Space Force Base

Loading…

Ближайшие Пролёты (ближайшие 24 часа)

TLE

СвежийSource: Space-Track

Эпоха: Sep 13, 2026, 22:00 UTC

1 12185U 78026AA  26256.91701696  .00000504  00000-0  26176-3 0  9994
2 12185  99.2596 251.8964 0090502  47.2497  15.7861 14.17349930341909

Отслеживайте DELTA 1 DEB в реальном времени с AllMySat

Download on the App Store